Time,TemperatureF,DewpointF,PressureIn,WindDirection,WindDirectionDegrees,WindSpeedMPH,WindSpeedGustMPH,Humidity,HourlyPrecipIn,Conditions,Clouds,dailyrainin,SoftwareType,DateUTC
2013-10-06 00:01:00,62.7,43.0,30.02,NW,321,0.0,0.0,48,0.00,,,0.00,weatherlink.com 1.10,2013-10-06 07:01:00,
2013-10-06 00:16:00,61.8,43.0,30.01,NW,321,0.0,0.0,50,0.00,,,0.00,weatherlink.com 1.10,2013-10-06 07:16:00,
2013-10-06 00:31:00,61.1,43.0,30.01,NW,321,0.0,0.0,52,0.00,,,0.00,weatherlink.com 1.10,2013-10-06 07:31:00,
2013-10-06 00:46:00,60.6,43.0,30.01,NW,321,0.0,0.0,53,0.00,,,0.00,weatherlink.com 1.10,2013-10-06 07:46:00,
2013-10-06 01:01:00,60.2,43.0,30.02,NW,321,0.0,0.0,53,0.00,,,0.00,weatherlink.com 1.10,2013-10-06 08:01:00,
2013-10-06 01:16:00,60.0,43.0,30.02,NW,321,0.0,0.0,54,0.00,,,0.00,weatherlink.com 1.10,2013-10-06 08:16:00,
2013-10-06 01:32:00,59.3,43.0,30.02,WNW,296,0.0,1.0,56,0.00,,,0.00,weatherlink.com 1.10,2013-10-06 08:32:00,
2013-10-06 01:47:00,60.1,43.0,30.02,WNW,290,0.0,0.0,53,0.00,,,0.00,weatherlink.com 1.10,2013-10-06 08:47:00,
2013-10-06 02:02:00,59.3,42.0,30.02,West,267,0.0,1.0,53,0.00,,,0.00,weatherlink.com 1.10,2013-10-06 09:02:00,
2013-10-06 02:17:00,58.9,42.0,30.01,West,268,0.0,0.0,54,0.00,,,0.00,weatherlink.com 1.10,2013-10-06 09:17:00,
2013-10-06 02:32:00,58.4,42.0,30.01,West,267,0.0,0.0,54,0.00,,,0.00,weatherlink.com 1.10,2013-10-06 09:32:00,
2013-10-06 02:47:00,58.1,42.0,30.01,West,269,0.0,0.0,55,0.00,,,0.00,weatherlink.com 1.10,2013-10-06 09:47:00,
2013-10-06 03:02:00,57.9,42.0,30.01,West,269,0.0,1.0,55,0.00,,,0.00,weatherlink.com 1.10,2013-10-06 10:02:00,
2013-10-06 03:17:00,57.6,41.0,30.01,West,269,0.0,0.0,55,0.00,,,0.00,weatherlink.com 1.10,2013-10-06 10:17:00,
2013-10-06 03:32:00,57.7,40.0,30.01,WNW,301,0.0,2.0,53,0.00,,,0.00,weatherlink.com 1.10,2013-10-06 10:32:00,
2013-10-06 03:47:00,58.0,40.0,30.01,WNW,302,0.0,0.0,51,0.00,,,0.00,weatherlink.com 1.10,2013-10-06 10:47:00,
2013-10-06 04:02:00,58.4,38.0,30.01,WNW,301,0.0,0.0,47,0.00,,,0.00,weatherlink.com 1.10,2013-10-06 11:02:00,
2013-10-06 04:17:00,57.3,39.0,30.01,WNW,302,0.0,0.0,51,0.00,,,0.00,weatherlink.com 1.10,2013-10-06 11:17:00,
2013-10-06 04:32:00,56.5,39.0,30.01,WNW,301,0.0,0.0,53,0.00,,,0.00,weatherlink.com 1.10,2013-10-06 11:32:00,
2013-10-06 04:47:00,55.7,39.0,30.01,WNW,301,0.0,0.0,54,0.00,,,0.00,weatherlink.com 1.10,2013-10-06 11:47:00,
2013-10-06 05:02:00,55.8,39.0,30.01,WNW,302,0.0,0.0,54,0.00,,,0.00,weatherlink.com 1.10,2013-10-06 12:02:00,
2013-10-06 05:17:00,55.7,39.0,30.01,WNW,301,0.0,0.0,53,0.00,,,0.00,weatherlink.com 1.10,2013-10-06 12:17:00,
2013-10-06 05:32:00,55.8,39.0,30.01,WNW,301,0.0,0.0,54,0.00,,,0.00,weatherlink.com 1.10,2013-10-06 12:32:00,
2013-10-06 05:47:00,54.7,39.0,30.02,WNW,301,0.0,0.0,56,0.00,,,0.00,weatherlink.com 1.10,2013-10-06 12:47:00,
2013-10-06 06:02:00,54.2,39.0,30.02,WNW,301,0.0,0.0,58,0.00,,,0.00,weatherlink.com 1.10,2013-10-06 13:02:00,
2013-10-06 06:17:00,53.9,40.0,30.02,WNW,302,0.0,1.0,60,0.00,,,0.00,weatherlink.com 1.10,2013-10-06 13:17:00,
2013-10-06 06:32:00,53.2,40.0,30.02,WNW,301,0.0,0.0,61,0.00,,,0.00,weatherlink.com 1.10,2013-10-06 13:32:00,
2013-10-06 06:47:00,52.8,40.0,30.02,WNW,302,0.0,1.0,63,0.00,,,0.00,weatherlink.com 1.10,2013-10-06 13:47:00,
2013-10-06 07:02:00,53.0,41.0,30.03,WNW,302,0.0,0.0,65,0.00,,,0.00,weatherlink.com 1.10,2013-10-06 14:02:00,
2013-10-06 07:17:00,54.3,40.0,30.02,WNW,301,0.0,1.0,60,0.00,,,0.00,weatherlink.com 1.10,2013-10-06 14:17:00,
2013-10-06 07:32:00,57.1,38.0,30.03,NW,318,1.0,2.0,49,0.00,,,0.00,weatherlink.com 1.10,2013-10-06 14:32:00,
2013-10-06 07:47:00,59.3,37.0,30.03,NW,319,1.0,3.0,43,0.00,,,0.00,weatherlink.com 1.10,2013-10-06 14:47:00,
2013-10-06 08:02:00,61.8,36.0,30.03,NNW,328,2.0,4.0,38,0.00,,,0.00,weatherlink.com 1.10,2013-10-06 15:02:00,
2013-10-06 08:17:00,65.0,35.0,30.03,NW,316,0.0,3.0,33,0.00,,,0.00,weatherlink.com 1.10,2013-10-06 15:17:00,
2013-10-06 08:32:00,67.2,33.0,30.03,NW,317,1.0,5.0,28,0.00,,,0.00,weatherlink.com 1.10,2013-10-06 15:32:00,
2013-10-06 08:47:00,69.5,33.0,30.04,NW,305,2.0,4.0,26,0.00,,,0.00,weatherlink.com 1.10,2013-10-06 15:47:00,
2013-10-06 09:02:00,72.4,35.0,30.04,WNW,297,1.0,2.0,25,0.00,,,0.00,weatherlink.com 1.10,2013-10-06 16:02:00,
2013-10-06 09:18:00,75.7,34.0,30.04,NNW,332,3.0,3.0,22,0.00,,,0.00,weatherlink.com 1.10,2013-10-06 16:18:00,
2013-10-06 09:33:00,76.7,31.0,30.04,NNW,344,3.0,4.0,19,0.00,,,0.00,weatherlink.com 1.10,2013-10-06 16:33:00,
2013-10-06 09:48:00,78.6,29.0,30.04,WNW,292,0.0,3.0,16,0.00,,,0.00,weatherlink.com 1.10,2013-10-06 16:48:00,
2013-10-06 10:03:00,81.0,26.0,30.04,WNW,300,2.0,4.0,13,0.00,,,0.00,weatherlink.com 1.10,2013-10-06 17:03:00,
2013-10-06 10:18:00,82.3,20.0,30.04,NW,311,4.0,6.0,10,0.00,,,0.00,weatherlink.com 1.10,2013-10-06 17:18:00,
2013-10-06 10:33:00,83.9,22.0,30.03,NW,307,3.0,5.0,10,0.00,,,0.00,weatherlink.com 1.10,2013-10-06 17:33:00,
2013-10-06 10:48:00,85.2,17.0,30.02,WNW,298,1.0,7.0,8,0.00,,,0.00,weatherlink.com 1.10,2013-10-06 17:48:00,
2013-10-06 11:03:00,86.8,8.0,30.02,NNE,27,4.0,6.0,5,0.00,,,0.00,weatherlink.com 1.10,2013-10-06 18:03:00,
2013-10-06 11:18:00,87.7,4.0,30.02,NNE,13,3.0,9.0,4,0.00,,,0.00,weatherlink.com 1.10,2013-10-06 18:18:00,
2013-10-06 11:33:00,88.3,-2.0,30.01,NNW,341,4.0,7.0,3,0.00,,,0.00,weatherlink.com 1.10,2013-10-06 18:33:00,
2013-10-06 11:48:00,88.9,-2.0,30.01,West,280,1.0,7.0,3,0.00,,,0.00,weatherlink.com 1.10,2013-10-06 18:48:00,
2013-10-06 12:03:00,89.2,-10.0,30.00,NNE,33,2.0,6.0,2,0.00,,,0.00,weatherlink.com 1.10,2013-10-06 19:03:00,
2013-10-06 12:18:00,90.4,-9.0,30.00,WNW,291,2.0,7.0,2,0.00,,,0.00,weatherlink.com 1.10,2013-10-06 19:18:00,
2013-10-06 12:33:00,91.8,0.0,29.99,NW,312,1.0,6.0,3,0.00,,,0.00,weatherlink.com 1.10,2013-10-06 19:33:00,
2013-10-06 12:48:00,91.9,-8.0,29.98,NW,308,4.0,7.0,2,0.00,,,0.00,weatherlink.com 1.10,2013-10-06 19:48:00,
2013-10-06 13:04:00,92.1,-22.0,29.98,NNE,32,3.0,7.0,1,0.00,,,0.00,weatherlink.com 1.10,2013-10-06 20:04:00,
2013-10-06 13:19:00,93.2,-21.0,29.97,NW,307,3.0,6.0,1,0.00,,,0.00,weatherlink.com 1.10,2013-10-06 20:19:00,
2013-10-06 13:34:00,93.3,-99.9,29.96,NW,323,4.0,7.0,-999,0.00,,,0.00,weatherlink.com 1.10,2013-10-06 20:34:00,
2013-10-06 13:49:00,94.2,-99.9,29.96,West,266,1.0,5.0,-999,0.00,,,0.00,weatherlink.com 1.10,2013-10-06 20:49:00,
2013-10-06 14:04:00,94.2,-99.9,29.95,West,266,3.0,6.0,-999,0.00,,,0.00,weatherlink.com 1.10,2013-10-06 21:04:00,
2013-10-06 14:19:00,94.3,-99.9,29.94,WNW,300,5.0,5.0,-999,0.00,,,0.00,weatherlink.com 1.10,2013-10-06 21:19:00,
2013-10-06 14:34:00,95.4,-99.9,29.94,West,272,0.0,3.0,0,0.00,,,0.00,weatherlink.com 1.10,2013-10-06 21:34:00,
2013-10-06 14:49:00,95.4,-6.0,29.93,NW,318,2.0,6.0,2,0.00,,,0.00,weatherlink.com 1.10,2013-10-06 21:49:00,
2013-10-06 15:04:00,93.8,-21.0,29.93,WSW,248,4.0,9.0,1,0.00,,,0.00,weatherlink.com 1.10,2013-10-06 22:04:00,
2013-10-06 15:19:00,94.3,-99.9,29.93,SW,222,7.0,8.0,0,0.00,,,0.00,weatherlink.com 1.10,2013-10-06 22:19:00,
2013-10-06 15:34:00,94.3,-21.0,29.93,WSW,248,4.0,7.0,1,0.00,,,0.00,weatherlink.com 1.10,2013-10-06 22:34:00,
2013-10-06 15:49:00,93.9,-7.0,29.92,West,259,5.0,5.0,2,0.00,,,0.00,weatherlink.com 1.10,2013-10-06 22:49:00,
2013-10-06 16:04:00,92.8,-99.9,29.92,WSW,255,5.0,7.0,0,0.00,,,0.00,weatherlink.com 1.10,2013-10-06 23:04:00,
2013-10-06 16:19:00,93.4,-21.0,29.91,WNW,282,2.0,7.0,1,0.00,,,0.00,weatherlink.com 1.10,2013-10-06 23:19:00,
2013-10-06 16:35:00,92.4,1.0,29.91,NW,312,6.0,9.0,3,0.00,,,0.00,weatherlink.com 1.10,2013-10-06 23:35:00,
2013-10-06 16:50:00,91.0,19.0,29.91,West,259,4.0,10.0,7,0.00,,,0.00,weatherlink.com 1.10,2013-10-06 23:50:00,
2013-10-06 17:05:00,89.5,26.0,29.91,West,261,3.0,10.0,10,0.00,,,0.00,weatherlink.com 1.10,2013-10-07 00:05:00,
2013-10-06 17:20:00,88.9,28.0,29.91,West,274,2.0,8.0,11,0.00,,,0.00,weatherlink.com 1.10,2013-10-07 00:20:00,
2013-10-06 17:35:00,86.2,28.0,29.91,WNW,294,5.0,10.0,12,0.00,,,0.00,weatherlink.com 1.10,2013-10-07 00:35:00,
2013-10-06 17:50:00,84.7,25.0,29.91,WSW,255,8.0,9.0,11,0.00,,,0.00,weatherlink.com 1.10,2013-10-07 00:50:00,
2013-10-06 18:05:00,82.4,27.0,29.91,WNW,290,8.0,14.0,13,0.00,,,0.00,weatherlink.com 1.10,2013-10-07 01:05:00,
2013-10-06 18:20:00,80.4,27.0,29.92,West,278,2.0,10.0,14,0.00,,,0.00,weatherlink.com 1.10,2013-10-07 01:20:00,
2013-10-06 18:35:00,78.8,34.0,29.91,NW,309,6.0,8.0,20,0.00,,,0.00,weatherlink.com 1.10,2013-10-07 01:35:00,
2013-10-06 18:50:00,77.2,40.0,29.92,WNW,302,4.0,9.0,26,0.00,,,0.00,weatherlink.com 1.10,2013-10-07 01:50:00,
2013-10-06 19:05:00,76.0,44.0,29.92,West,281,1.0,6.0,32,0.00,,,0.00,weatherlink.com 1.10,2013-10-07 02:05:00,
2013-10-06 19:20:00,75.0,45.0,29.92,NW,309,5.0,6.0,34,0.00,,,0.00,weatherlink.com 1.10,2013-10-07 02:20:00,
2013-10-06 19:35:00,74.4,43.0,29.92,WNW,290,1.0,4.0,32,0.00,,,0.00,weatherlink.com 1.10,2013-10-07 02:35:00,
2013-10-06 19:50:00,74.0,43.0,29.92,WNW,300,0.0,6.0,33,0.00,,,0.00,weatherlink.com 1.10,2013-10-07 02:50:00,
2013-10-06 20:06:00,73.4,45.0,29.92,WNW,286,0.0,4.0,36,0.00,,,0.00,weatherlink.com 1.10,2013-10-07 03:06:00,
2013-10-06 20:21:00,72.6,48.0,29.92,West,271,0.0,3.0,42,0.00,,,0.00,weatherlink.com 1.10,2013-10-07 03:21:00,
2013-10-06 20:36:00,72.1,50.0,29.93,West,259,0.0,4.0,46,0.00,,,0.00,weatherlink.com 1.10,2013-10-07 03:36:00,
2013-10-06 20:51:00,72.2,48.0,29.93,West,276,1.0,5.0,43,0.00,,,0.00,weatherlink.com 1.10,2013-10-07 03:51:00,
2013-10-06 21:06:00,72.6,45.0,29.93,NW,325,1.0,4.0,38,0.00,,,0.00,weatherlink.com 1.10,2013-10-07 04:06:00,
2013-10-06 21:21:00,71.6,47.0,29.93,WNW,293,1.0,2.0,41,0.00,,,0.00,weatherlink.com 1.10,2013-10-07 04:21:00,
2013-10-06 21:36:00,70.4,48.0,29.93,WNW,293,0.0,1.0,45,0.00,,,0.00,weatherlink.com 1.10,2013-10-07 04:36:00,
2013-10-06 21:51:00,68.9,48.0,29.93,WNW,293,0.0,0.0,48,0.00,,,0.00,weatherlink.com 1.10,2013-10-07 04:51:00,
2013-10-06 22:06:00,68.1,49.0,29.93,WNW,293,0.0,1.0,51,0.00,,,0.00,weatherlink.com 1.10,2013-10-07 05:06:00,
2013-10-06 22:21:00,67.2,49.0,29.93,WNW,293,0.0,0.0,53,0.00,,,0.00,weatherlink.com 1.10,2013-10-07 05:21:00,
2013-10-06 22:36:00,66.8,49.0,29.93,WNW,293,0.0,0.0,54,0.00,,,0.00,weatherlink.com 1.10,2013-10-07 05:36:00,
2013-10-06 22:51:00,66.2,50.0,29.93,WNW,293,0.0,0.0,56,0.00,,,0.00,weatherlink.com 1.10,2013-10-07 05:51:00,
2013-10-06 23:06:00,65.6,50.0,29.92,WNW,293,0.0,0.0,58,0.00,,,0.00,weatherlink.com 1.10,2013-10-07 06:06:00,
2013-10-06 23:21:00,65.0,50.0,29.92,WNW,293,0.0,0.0,59,0.00,,,0.00,weatherlink.com 1.10,2013-10-07 06:21:00,
2013-10-06 23:37:00,64.1,50.0,29.92,WNW,293,0.0,0.0,60,0.00,,,0.00,weatherlink.com 1.10,2013-10-07 06:37:00,
2013-10-06 23:52:00,63.4,50.0,29.91,WNW,293,0.0,0.0,62,0.00,,,0.00,weatherlink.com 1.10,2013-10-07 06:52:00,